Terminal Aerodrome Forecast
Issued by NWS

Home | Current Version | Previous Version | Text Only | Print | Product List | Glossary On
Versions: 1 2 3 4 5 6 7 8 9 10 11 12 13 14 15 16 17
980
FTAK31 PAJN 080540
TAFAPG
TAF
PAPG 080540Z 0806/0906 00000KT P6SM VCSH FEW009 BKN025 OVC030
     FM081300 13005KT 6SM -RA BR FEW010 OVC030
     FM081700 15006KT 3SM -RA BR SCT007 OVC015
     FM082100 18003KT 2SM -RA BR BKN007 OVC015
     FM090300 03003KT 3SM -RA BR BKN007 OVC015 WS020/17030KT
      AMD LTD TO CLD VIS AND WIND 0806/0815=

USA.gov is the U.S. government's official web portal to all federal, state and local government web resources and services.